sat.trackr.live / text

‹ back to catalog

FENGYUN 3H

NORAD 65815 · 2025-219A

PAYLOAD ACTIVE UNKNOWN

§ Identity

Operator
Country
PRC
Launch date
2025-09-26
Launch site
JSC
Launch vehicle
Mass (kg)
RCS (m²)

Purposes: earth_obs

External: N2YO · Heavens-Above · Gunter

§ Orbital elements

Epoch: 2026-09-20T02:23:19.440384Z

Period
101.41 min
Inclination
98.6822°
Eccentricity
0.0001431
Mean motion
14.19933488 rev/d
Perigee alt
824.5 km
Apogee alt
826.6 km
Semi-major
7,203.7 km
B*
3.3758e-5
RAAN
202.0416°
Arg perigee
98.1456°
Mean anomaly
261.9883°
Rev number
5,085

§ Raw data

FENGYUN 3H1 65815U 25219A   26263.09953056  .00000028  00000+0  33758-4 0  99992 65815  98.6822 202.0416 0001431  98.1456 261.9883 14.19933488 50854

JSON: /api/v1/satellites/65815 · /tle

For live sub-satellite position, see the globe view (requires WebGL).

§ Visibility from observer

Set your observer location to see the next 7 days of passes ≥ 10°. The values pass through the URL so the page stays shareable.

No JS? Fill the form by hand. The geolocation button needs JavaScript.

§ Radio — SatNOGS DB

ModeDescriptionDownlinkUplink
FM S-band telemetry 2.219 GHz
FM S-band telemetry 2.253 GHz

2 transmitters · refreshed weekly from db.satnogs.org